FW2567 Weather Reports


time (UTC)temp
F
wind
direction
speed
knots
gust
knots
rain 1hr
in
rain 24hr
in
rain mn
in
humidity
%
barometer
mb
20260903023030 55 118 0.9 3.5 0.14 0.34 0.30 94 1010.4
20260903021606 55 356 0.0 3.5 0.11 0.30 0.27 94 1010.3
20260903020031 56 315 1.7 6.1 0.09 0.27 0.20 94 1009.9
20260903014530 56 290 2.6 6.1 0.04 0.20 0.20 94 1009.4
20260903013033 55 216 0.0 2.6 0.05 0.20 0.19 93 1009.5
20260903011530 56 218 0.9 2.6 0.05 0.19 0.18 93 1009.7
20260903004530 56 267 1.7 5.2 0.05 0.16 0.15 92 1009.7
20260903000030 56 284 0.9 3.5 0.03 0.11 0.11 91 1009.7
20260902234530 56 355 0.9 2.6 0.04 0.11 0.09 91 1009.6
20260902233106 57 21 0.9 3.5 0.02 0.09 0.09 92 1009.7
20260902230029 57 288 0.9 4.3 0.02 0.08 0.07 91 1009.9
20260902224529 57 273 2.6 6.1 0.02 0.07 0.07 91 1009.8
20260902223031 56 294 1.7 4.3 0.02 0.07 0.07 91 1009.7
20260902221532 56 293 2.6 6.1 0.03 0.07 0.06 90 1009.8
20260902220031 57 277 3.5 6.1 0.03 0.06 0.05 89 1009.7
20260902214533 57 297 1.7 6.1 0.03 0.05 0.05 88 1009.5
20260902213146 56 305 1.7 5.2 0.04 0.05 0.04 87 1009.4
20260902211530 57 339 2.6 4.3 0.03 0.04 0.03 86 1009.4
20260902204529 57 86 2.6 6.1 0.02 0.02 0.01 83 1009.5
20260902203030 57 11 2.6 6.1 0.01 0.01 0.01 80 1009.6
20260902201530 58 349 1.7 6.1 0.01 0.01 0.00 77 1009.8
20260902200031 58 175 1.7 7.8 0.00 0.00 0.00 75 1009.7
20260902194530 59 131 2.6 7.8 0.00 0.00 0.00 74 1009.7
20260902193031 60 339 1.7 6.1 0.00 0.00 0.00 76 1009.7
20260902191532 60 2 0.9 6.1 0.00 0.00 0.00 75 1009.7
20260902190030 61 25 0.0 2.6 0.00 0.00 0.00 74 1009.7
20260902184529 61 148 0.0 2.6 0.00 0.00 0.00 73 1009.7
20260902183034 62 217 1.7 3.5 0.00 0.00 0.00 73 1009.8
20260902181531 61 267 0.0 4.3 0.00 0.00 0.00 74 1009.6
20260902180030 60 292 0.0 0.9 0.00 0.00 0.00 74 1009.7
20260902174531 60 307 1.7 5.2 0.00 0.00 0.00 73 1009.7
20260902173032 61 273 3.5 6.1 0.00 0.00 0.00 73 1009.7
20260902171529 60 266 1.7 4.3 0.00 0.00 0.00 75 1009.8
20260902170032 59 272 0.9 3.5 0.00 0.00 0.00 76 1009.9
20260902164529 58 320 0.9 3.5 0.00 0.00 0.00 76 1010.2
20260902163030 58 326 0.9 3.5 0.00 0.00 0.00 77 1010.4
20260902160031 58 17 1.7 4.3 0.00 0.00 0.00 76 1010.7
20260902154647 58 12 1.7 3.5 0.00 0.00 0.00 79 1010.9
20260902153029 56 349 0.0 2.6 0.00 0.00 0.00 82 1011.0
20260902151532 55 85 0.0 1.7 0.00 0.00 0.00 84 1010.9
20260902150030 55 99 0.0 2.6 0.00 0.00 0.00 86 1011.1
20260902144530 52 151 0.9 4.3 0.00 0.00 0.00 89 1011.2
20260902143108 51 152 0.0 2.6 0.00 0.00 0.00 90 1011.3
20260902141531 49 148 1.7 3.5 0.00 0.00 0.00 90 1011.3
20260902140031 48 157 0.9 4.3 0.00 0.00 0.00 89 1011.4
20260902134531 47 116 0.0 4.3 0.00 0.00 0.00 89 1011.3
20260902131644 46 187 1.7 4.3 0.00 0.00 0.00 87 1011.5
20260902130032 46 158 1.7 4.3 0.00 0.00 0.00 85 1011.4
20260902124606 47 148 1.7 3.5 0.00 0.00 0.00 83 1011.5
20260902123033 49 196 1.7 4.3 0.00 0.00 0.00 81 1011.5
20260902121531 52 144 2.6 4.3 0.00 0.00 0.00 79 1011.7
20260902120106 52 325 2.6 5.2 0.00 0.00 0.00 78 1011.7
20260902111531 55 303 3.5 10.4 0.00 0.00 0.00 73 1011.5
20260902110030 56 309 3.5 11.3 0.00 0.00 0.00 72 1011.6
20260902103033 56 293 5.2 12.2 0.00 0.00 0.00 73 1012.0
20260902101531 56 286 4.3 11.3 0.00 0.00 0.00 73 1012.1
20260902100032 57 283 4.3 9.6 0.00 0.00 0.00 72 1012.3
20260902094530 57 276 4.3 12.2 0.00 0.00 0.00 72 1012.4
20260902093031 57 279 4.3 12.2 0.00 0.00 0.00 72 1012.5
20260902084530 57 279 4.3 11.3 0.00 0.00 0.00 72 1012.5
20260902083032 57 294 3.5 9.6 0.00 0.00 0.00 73 1012.6
20260902081530 57 287 3.5 9.6 0.00 0.00 0.00 73 1012.6
20260902080029 57 322 3.5 7.8 0.00 0.00 0.00 74 1012.6
20260902074606 57 301 4.3 9.6 0.00 0.00 0.00 74 1012.6
20260902073030 57 306 3.5 8.7 0.00 0.00 0.00 74 1012.7
20260902071532 57 316 4.3 11.3 0.00 0.00 0.00 73 1012.9
20260902070029 58 325 4.3 11.3 0.00 0.00 0.00 73 1013.1
20260902064532 58 307 4.3 11.3 0.00 0.00 0.00 72 1013.4
20260902063029 59 310 3.5 7.0 0.00 0.00 0.00 72 1013.6
20260902061531 59 312 4.3 16.5 0.00 0.00 0.00 71 1013.6
20260902060031 59 291 2.6 10.4 0.00 0.00 0.00 71 1013.6
20260902054529 59 195 0.0 6.1 0.00 0.00 0.00 70 1013.6
20260902053031 60 320 1.7 6.1 0.00 0.00 0.00 69 1013.4
20260902051529 59 263 3.5 8.7 0.00 0.00 0.00 70 1013.4
20260902050145 59 253 2.6 12.2 0.00 0.00 0.00 71 1013.3
20260902044530 59 281 1.7 6.1 0.00 0.00 0.00 70 1013.2
20260902043147 59 208 1.7 6.1 0.00 0.00 0.00 70 1013.1
20260902041605 59 255 3.5 9.6 0.00 0.00 0.00 69 1013.0
20260902040029 60 262 3.5 13.0 0.00 0.00 0.00 69 1012.8
20260902034607 60 293 4.3 12.2 0.00 0.00 0.00 69 1012.5
20260902033029 60 273 3.5 7.8 0.00 0.00 0.00 68 1012.5
20260902031531 60 296 3.5 12.2 0.00 0.00 0.00 67 1012.4
20260902030106 60 277 6.1 18.2 0.00 0.00 0.00 67 1012.4